Weather History for KMLF - July, 2013

Change the Weather History Date:

Saturday, July 20, 2013

  Actual Average (KCDC) Record (KCDC)
Temperature  
Mean Temperature 80 °F 74 °F  
Max Temperature 100 °F 91 °F 100 °F (1989)
Min Temperature 60 °F 57 °F 48 °F (1973)
Degree Days  
Heating Degree Days 0 0  
Month to date heating degree days 0  
Since 1 June heating degree days 76  
Since 1 July heating degree days 0  
Cooling Degree Days 15 9  
Month to date cooling degree days 156  
Year to date cooling degree days 257  
Since 1 June cooling degree days 249  
Growing Degree Days 30 (Base 50)    
Moisture  
Dew Point 36 °F    
Average Humidity 25    
Maximum Humidity 60    
Minimum Humidity 4    
Precipitation  
Precipitation 0.00 in 0.03 in 0.66 in (1977)
Month to date precipitation 0.45  
Year to date precipitation 6.02  
Sea Level Pressure  
Sea Level Pressure 29.77 in    
Wind  
Wind Speed 10 mph (SSW)    
Max Wind Speed 14 mph    
Max Gust Speed 25 mph    
Visibility 10 miles    
Events      
T = Trace of Precipitation, MM = Missing Value Source: NWS Daily Summary

Daily Weather History Graph

Daily Weather History Graph

Search for Another Location

Airport or City:

Trip Planner

Search our weather history database for the weather conditions in past years. The results will help you decide how hot, cold, wet, or windy it might be!

Date:

Astronomy

Jul. 20, 2013 Rise Set
Actual Time 6:24 AM MDT 8:52 PM MDT
Civil Twilight 5:53 AM MDT 9:22 PM MDT
Nautical Twilight 5:16 AM MDT 9:59 PM MDT
Astronomical Twilight 4:34 AM MDT 10:41 PM MDT
Moon 6:59 PM MDT (7/20) 4:08 AM MDT (7/20)
Length of Visible Light 15h 28m
Length of Day
14h 27m
Waxing Gibbous, 94% of the Moon is Illuminated
Jul 20
Waxing Gibbous
Jul 22
Full
Jul 29
Last Quarter
Aug 6
New
Aug 14
First Quarter

Hourly Weather History & Observations

Time (MDT) Temp. Dew Point Humidity Pressure Visibility Wind Dir Wind Speed Gust Speed Precip Events Conditions
12:52 AM 75.0 °F 46.0 °F 36% 29.81 in 10.0 mi SW 10.4 mph - N/A   Clear
1:52 AM 72.0 °F 46.9 °F 41% 29.82 in 10.0 mi SW 9.2 mph - N/A   Clear
2:52 AM 66.0 °F 48.9 °F 54% 29.82 in 10.0 mi SSW 8.1 mph - N/A   Clear
3:52 AM 66.9 °F 46.9 °F 49% 29.83 in 10.0 mi South 10.4 mph - N/A   Clear
4:52 AM 62.1 °F 48.0 °F 60% 29.83 in 10.0 mi SSW 9.2 mph - N/A   Clear
5:52 AM 61.0 °F 45.0 °F 56% 29.84 in 10.0 mi SW 6.9 mph - N/A   Clear
6:52 AM 60.1 °F 46.0 °F 60% 29.84 in 10.0 mi SW 5.8 mph - N/A   Clear
7:52 AM 66.9 °F 46.0 °F 47% 29.84 in 10.0 mi SSW 6.9 mph - N/A   Clear
8:52 AM 73.9 °F 48.9 °F 41% 29.84 in 10.0 mi South 11.5 mph - N/A   Clear
9:52 AM 82.0 °F 44.1 °F 26% 29.83 in 10.0 mi SSW 11.5 mph - N/A   Clear
10:52 AM 86.0 °F 45.0 °F 24% 29.82 in 10.0 mi SSW 12.7 mph - N/A   Clear
11:52 AM 91.0 °F 41.0 °F 17% 29.81 in 10.0 mi South 9.2 mph - N/A   Clear
12:52 PM 95.0 °F 34.0 °F 12% 29.77 in 10.0 mi Variable 5.8 mph - N/A   Clear
1:52 PM 96.1 °F 26.1 °F 8% 29.75 in 10.0 mi Variable 6.9 mph - N/A   Clear
2:52 PM 99.0 °F 24.1 °F 7% 29.73 in 10.0 mi North 13.8 mph 21.9 mph N/A   Clear
3:52 PM 100.0 °F 18.0 °F 5% 29.70 in 10.0 mi NE 13.8 mph 24.2 mph N/A   Clear
3:57 PM 100.4 °F 17.6 °F 5% 29.95 in 10.0 mi NNE 9.2 mph 21.9 mph N/A   Clear
4:52 PM 98.1 °F 19.0 °F 6% 29.69 in 10.0 mi North 11.5 mph - N/A   Clear
5:52 PM 99.0 °F 15.1 °F 5% 29.67 in 10.0 mi NNE 12.7 mph 25.3 mph N/A   Clear
6:52 PM 97.0 °F 16.0 °F 5% 29.68 in 10.0 mi NNW 13.8 mph 18.4 mph N/A   Clear
7:52 PM 95.0 °F 17.1 °F 6% 29.68 in 10.0 mi NNE 11.5 mph - N/A   Clear
8:52 PM 87.1 °F 21.0 °F 9% 29.67 in 10.0 mi North 5.8 mph - N/A   Clear
9:52 PM 84.0 °F 37.9 °F 19% 29.70 in 10.0 mi South 13.8 mph - N/A   Clear
10:52 PM 81.0 °F 39.0 °F 22% 29.73 in 10.0 mi SW 10.4 mph - N/A   Clear
11:52 PM 78.1 °F 45.0 °F 31% 29.72 in 10.0 mi SSW 10.4 mph - N/A   Clear